Charlevoix, MI

3:51 PM EST on November 22, 2017 (GMT -0500)
Charlevoix Municipal

Weather History for KCVX - December, 2012

Change the Weather History Date:

Friday, December 21, 2012

  Actual Average Record
Temperature  
Mean Temperature 30 °F -  
Max Temperature 32 °F 29 °F 42 °F (2003)
Min Temperature 28 °F 19 °F 15 °F (2010)
Degree Days  
Heating Degree Days 35    
Moisture  
Dew Point 26 °F    
Average Humidity 84    
Maximum Humidity 96    
Minimum Humidity 69    
Precipitation  
Precipitation 0.00 in - - ()
Sea Level Pressure  
Sea Level Pressure 29.64 in    
Wind  
Wind Speed 20 mph (North)    
Max Wind Speed 29 mph    
Max Gust Speed 38 mph    
Visibility 4 miles    
Events Snow    
Averages and records for this station are not official NWS values.
T = Trace of Precipitation, MM = Missing Value Source: NWS Daily Summary

Daily Weather History Graph

Daily Weather History Graph

Search for Another Location

Airport or City:

Trip Planner

Search our weather history database for the weather conditions in past years. The results will help you decide how hot, cold, wet, or windy it might be!

Date:

Astronomy

Dec. 21, 2012 Rise Set
Actual Time 8:17 AM EST 5:01 PM EST
Civil Twilight 7:43 AM EST 5:35 PM EST
Nautical Twilight 7:06 AM EST 6:13 PM EST
Astronomical Twilight 6:30 AM EST 6:48 PM EST
Moon 12:58 PM EST (12/21) 1:51 AM EST (12/21)
Length of Visible Light 9h 52m
Length of Day
8h 43m
Waxing Gibbous, 64% of the Moon is Illuminated
Dec 21
Waxing Gibbous
Dec 28
Full
Jan 4
Last Quarter
Jan 11
New
Jan 18
First Quarter

Hourly Weather History & Observations

Time (EST) Temp. Windchill Dew Point Humidity Pressure Visibility Wind Dir Wind Speed Gust Speed Precip Events Conditions
12:14 AM 30.6 °F 19.0 °F 29.1 °F 94% 29.32 in 1.2 mi NNE 17.3 mph 23.0 mph N/A Snow Light Snow
12:35 AM 30.6 °F 21.2 °F 28.9 °F 94% 29.33 in 1.8 mi NNE 11.5 mph 20.7 mph N/A Snow Light Snow
12:55 AM 30.6 °F 18.6 °F 29.1 °F 94% 29.33 in 1.2 mi NNE 18.4 mph 26.5 mph N/A Snow Light Snow
1:15 AM 30.2 °F 18.5 °F 29.3 °F 96% 29.33 in 0.8 mi North 17.3 mph 25.3 mph N/A Snow Snow
1:34 AM 29.8 °F 18.4 °F 28.4 °F 94% 29.34 in 0.8 mi North 16.1 mph 26.5 mph N/A Snow Snow
1:55 AM 29.5 °F 17.2 °F 28.0 °F 94% 29.35 in 1.0 mi NNE 18.4 mph 26.5 mph N/A Snow Light Snow
2:14 AM 29.7 °F 17.4 °F 28.0 °F 94% 29.36 in 1.0 mi North 18.4 mph 28.8 mph N/A Snow Light Snow
2:34 AM 29.3 °F 16.6 °F 27.5 °F 93% 29.36 in 1.0 mi North 19.6 mph 25.3 mph N/A Snow Light Snow
2:55 AM 29.3 °F 15.9 °F 27.3 °F 92% 29.38 in 1.8 mi North 21.9 mph 27.6 mph N/A Snow Light Snow
3:15 AM 29.3 °F 17.3 °F 26.8 °F 90% 29.39 in 2.0 mi North 17.3 mph 27.6 mph N/A Snow Light Snow
3:34 AM 29.5 °F 16.5 °F 26.8 °F 90% 29.39 in 4.0 mi North 20.7 mph 24.2 mph N/A Snow Light Snow
3:55 AM 29.7 °F 16.7 °F 27.1 °F 90% 29.40 in 3.0 mi North 20.7 mph 27.6 mph N/A   Overcast
4:14 AM 29.7 °F 17.8 °F 27.0 °F 90% 29.41 in 3.0 mi North 17.3 mph 27.6 mph N/A   Overcast
4:35 AM 29.5 °F 17.2 °F 26.8 °F 90% 29.42 in 3.0 mi North 18.4 mph 25.3 mph N/A   Overcast
4:54 AM 29.3 °F 16.6 °F 26.2 °F 88% 29.42 in 3.0 mi North 19.6 mph 28.8 mph N/A Snow Light Snow
5:10 AM 29.1 °F 16.7 °F 26.1 °F 88% 29.43 in 1.5 mi North 18.4 mph 28.8 mph N/A Snow Light Snow
5:35 AM 28.8 °F 16.2 °F 27.0 °F 93% 29.45 in 1.2 mi North 18.4 mph 26.5 mph N/A Snow Light Snow
5:55 AM 28.4 °F 15.4 °F 26.4 °F 92% 29.45 in 1.5 mi North 19.6 mph 27.6 mph N/A Snow Light Snow
6:14 AM 28.4 °F 14.1 °F 25.5 °F 89% 29.46 in 1.5 mi North 24.2 mph 31.1 mph N/A Snow Light Snow
6:35 AM 28.4 °F 14.4 °F 26.4 °F 92% 29.48 in 1.0 mi North 23.0 mph 32.2 mph N/A Snow Snow
6:54 AM 28.4 °F 15.1 °F 26.4 °F 92% 29.49 in 1.0 mi North 20.7 mph 29.9 mph N/A Snow Snow
7:14 AM 28.9 °F 15.8 °F 26.4 °F 90% 29.50 in 1.8 mi North 20.7 mph 27.6 mph N/A Snow Light Snow
7:31 AM 28.9 °F 15.8 °F 27.1 °F 93% 29.51 in 1.0 mi North 20.7 mph 31.1 mph N/A Snow Light Snow
7:55 AM 29.1 °F 16.0 °F 25.7 °F 87% 29.53 in 1.8 mi North 20.7 mph 31.1 mph N/A Snow Light Snow
8:14 AM 29.3 °F 15.6 °F 25.7 °F 86% 29.54 in 1.5 mi North 23.0 mph 34.5 mph N/A Snow Light Snow
8:35 AM 28.9 °F 15.1 °F 26.4 °F 90% 29.56 in - North 23.0 mph 34.5 mph N/A   Unknown
8:55 AM 29.1 °F 16.0 °F 27.1 °F 92% 29.57 in - North 20.7 mph 31.1 mph N/A   Unknown
9:15 AM 29.3 °F 15.9 °F 26.6 °F 90% 29.58 in - North 21.9 mph 36.8 mph N/A   Unknown
9:34 AM 29.5 °F 14.7 °F 26.8 °F 90% 29.59 in - North 27.6 mph 35.7 mph N/A   Unknown
9:55 AM 30.4 °F 18.0 °F 26.8 °F 86% 29.62 in - North 19.6 mph 38.0 mph N/A   Unknown
10:15 AM 30.7 °F 17.8 °F 26.2 °F 83% 29.62 in - North 21.9 mph 34.5 mph N/A   Overcast
10:35 AM 31.5 °F 17.9 °F 26.6 °F 82% 29.64 in - North 25.3 mph 36.8 mph N/A   Overcast
10:55 AM 31.3 °F 18.5 °F 26.2 °F 82% 29.65 in - North 21.9 mph 33.4 mph N/A   Overcast
11:15 AM 31.6 °F 18.7 °F 27.0 °F 83% 29.66 in - North 23.0 mph 33.4 mph N/A   Unknown
11:20 AM 31.5 °F 17.9 °F 26.6 °F 82% 29.66 in - NNW 25.3 mph 36.8 mph N/A   Overcast
12:00 PM 30.2 °F 17.4 °F 26.6 °F 86% 29.67 in - North 20.7 mph 32.2 mph N/A   Overcast
12:21 PM 32.0 °F 19.8 °F 26.6 °F 80% 29.68 in - North 20.7 mph 35.7 mph N/A   Overcast
12:36 PM 32.0 °F 19.5 °F 26.6 °F 80% 29.68 in - NNW 21.9 mph 34.5 mph N/A   Unknown
12:58 PM 30.2 °F 16.8 °F 26.6 °F 86% 29.69 in - NNW 23.0 mph 29.9 mph N/A   Overcast
1:40 PM 32.0 °F 19.8 °F 26.6 °F 80% 29.71 in 5.0 mi NNW 20.7 mph 33.4 mph N/A   Haze
1:57 PM 32.0 °F 19.8 °F 26.6 °F 80% 29.72 in 4.0 mi North 20.7 mph 35.7 mph N/A   Haze
2:17 PM 30.2 °F 16.5 °F 26.6 °F 86% 29.72 in 4.0 mi NNW 24.2 mph 35.7 mph N/A   Haze
2:57 PM 30.2 °F 15.9 °F 24.8 °F 80% 29.74 in 4.0 mi North 26.5 mph 34.5 mph N/A   Haze
3:37 PM 32.0 °F 18.9 °F 26.6 °F 80% 29.78 in 4.0 mi NNW 24.2 mph 32.2 mph N/A   Haze
3:58 PM 32.0 °F 18.9 °F 26.6 °F 80% 29.79 in 4.0 mi NNW 24.2 mph 36.8 mph N/A   Haze
4:17 PM 32.0 °F 18.1 °F 24.8 °F 75% 29.80 in 2.5 mi NNW 27.6 mph 36.8 mph N/A   Haze
4:38 PM 32.0 °F 18.6 °F 24.8 °F 75% 29.82 in 3.0 mi NNW 25.3 mph 33.4 mph N/A   Haze
5:19 PM 32.0 °F 18.4 °F 24.8 °F 75% 29.85 in 4.0 mi NNW 26.5 mph 34.5 mph N/A   Haze
5:38 PM 32.0 °F 18.6 °F 24.8 °F 75% 29.87 in 5.0 mi North 25.3 mph 34.5 mph N/A   Haze
6:21 PM 32.0 °F 17.9 °F 24.8 °F 75% 29.88 in 5.0 mi North 28.8 mph 36.8 mph N/A   Haze
6:38 PM 32.0 °F 18.4 °F 24.8 °F 75% 29.90 in 5.0 mi North 26.5 mph 38.0 mph N/A   Haze
7:02 PM 32.0 °F 18.4 °F 24.8 °F 75% 29.91 in 7.0 mi North 26.5 mph 34.5 mph N/A   Overcast
7:19 PM - - - N/A% - - North - - N/A   Unknown
7:53 PM 32.0 °F 19.8 °F 24.8 °F 75% 29.93 in 7.0 mi NNW 20.7 mph 32.2 mph N/A   Overcast
8:01 PM 32.0 °F 19.2 °F 24.8 °F 75% 29.93 in 10.0 mi NNW 23.0 mph 34.5 mph N/A   Overcast
8:31 PM 32.0 °F 19.5 °F 24.8 °F 75% 29.94 in 10.0 mi NNW 21.9 mph 33.4 mph N/A   Overcast
9:00 PM 30.2 °F 18.1 °F 24.8 °F 80% 29.95 in 10.0 mi NNW 18.4 mph 31.1 mph N/A   Overcast
9:26 PM 30.2 °F 17.8 °F 23.0 °F 75% 29.95 in 10.0 mi NNW 19.6 mph 32.2 mph N/A   Overcast
9:40 PM 30.2 °F 16.8 °F 23.0 °F 75% 29.96 in 10.0 mi NNW 23.0 mph 32.2 mph N/A   Overcast
10:06 PM 30.2 °F 17.8 °F 23.0 °F 75% 29.96 in 10.0 mi NNW 19.6 mph 28.8 mph N/A   Overcast
10:21 PM 30.2 °F 18.1 °F 23.0 °F 75% 29.95 in 10.0 mi NW 18.4 mph 28.8 mph N/A   Overcast
11:03 PM 30.2 °F 17.4 °F 21.2 °F 69% 29.97 in 10.0 mi NW 20.7 mph 32.2 mph N/A   Overcast
11:24 PM 30.2 °F 17.4 °F 23.0 °F 75% 29.97 in 10.0 mi NNW 20.7 mph 34.5 mph N/A   Overcast
11:38 PM 28.4 °F 15.1 °F 21.2 °F 74% 29.97 in 10.0 mi NNW 20.7 mph 31.1 mph N/A   Overcast